| time (UTC) | temp C | wind direction | speed KPH | gust KPH | rain 1hr cm | rain 24hr cm | rain mn cm | humidity % | barometer mb |
| 20260504204521 | 20 | 180 | 3.2 | 0.0 | 0.00 | 0.00 | 0.00 | 27 | 1004.9 |
| 20260504203020 | 20 | 307 | 4.8 | 0.0 | 0.00 | 0.00 | 0.00 | 26 | 1005.1 |
| 20260504201519 | 20 | 259 | 4.8 | 0.0 | 0.00 | 0.00 | 0.00 | 27 | 1005.3 |
| 20260504200020 | 20 | 305 | 3.2 | 0.0 | 0.00 | 0.00 | 0.00 | 28 | 1005.0 |
| 20260504194517 | 19 | 321 | 3.2 | 0.0 | 0.00 | 0.00 | 0.00 | 30 | 1005.2 |
| 20260504193015 | 19 | 305 | 3.2 | 0.0 | 0.00 | 0.00 | 0.00 | 27 | 1005.3 |
| 20260504191514 | 18 | 288 | 4.8 | 0.0 | 0.00 | 0.00 | 0.00 | 27 | 1005.5 |
| 20260504190012 | 18 | 282 | 3.2 | 0.0 | 0.00 | 0.00 | 0.00 | 28 | 1005.5 |
| 20260504184510 | 19 | 330 | 3.2 | 0.0 | 0.00 | 0.00 | 0.00 | 30 | 1005.7 |
| 20260504183007 | 18 | 304 | 3.2 | 0.0 | 0.00 | 0.00 | 0.00 | 31 | 1005.8 |
| 20260504181502 | 18 | 339 | 4.8 | 0.0 | 0.00 | 0.00 | 0.00 | 29 | 1006.0 |
| 20260504180002 | 18 | 356 | 3.2 | 0.0 | 0.00 | 0.00 | 0.00 | 28 | 1005.9 |
| 20260504174558 | 17 | 345 | 4.8 | 0.0 | 0.00 | 0.00 | 0.00 | 28 | 1006.1 |
| 20260504173053 | 17 | 156 | 3.2 | 0.0 | 0.00 | 0.00 | 0.00 | 29 | 1006.1 |
| 20260504171549 | 17 | 180 | 3.2 | 0.0 | 0.00 | 0.00 | 0.00 | 32 | 1006.1 |
| 20260504081543 | 11 | 294 | 0.0 | 0.0 | 0.00 | 0.00 | 0.00 | 53 | 1003.4 |
| 20260504044528 | 17 | 294 | 0.0 | 0.0 | 0.00 | 0.00 | 0.00 | 32 | 1003.4 |
| 20260504043030 | 18 | 294 | 0.0 | 0.0 | 0.00 | 0.00 | 0.00 | 30 | 1003.2 |
| 20260504041532 | 18 | 294 | 1.6 | 0.0 | 0.00 | 0.00 | 0.00 | 29 | 1003.2 |
| 20260504040026 | 18 | 293 | 1.6 | 0.0 | 0.00 | 0.00 | 0.00 | 31 | 1003.6 |
| 20260504034526 | 18 | 268 | 3.2 | 0.0 | 0.00 | 0.00 | 0.00 | 29 | 1003.4 |
| 20260504033025 | 18 | 287 | 0.0 | 0.0 | 0.00 | 0.00 | 0.00 | 29 | 1003.3 |
| 20260504031526 | 20 | 287 | 0.0 | 0.0 | 0.00 | 0.00 | 0.00 | 28 | 1003.0 |
| 20260504030026 | 20 | 287 | 0.0 | 0.0 | 0.00 | 0.00 | 0.00 | 24 | 1003.4 |
| 20260504024523 | 21 | 287 | 0.0 | 0.0 | 0.00 | 0.00 | 0.00 | 23 | 1003.1 |
| 20260504023026 | 22 | 287 | 0.0 | 0.0 | 0.00 | 0.00 | 0.00 | 23 | 1003.1 |
| 20260504021523 | 22 | 287 | 0.0 | 0.0 | 0.00 | 0.00 | 0.00 | 24 | 1002.9 |
| 20260504020033 | 23 | 287 | 3.2 | 0.0 | 0.00 | 0.00 | 0.00 | 23 | 1003.0 |
| 20260504014522 | 23 | 285 | 4.8 | 0.0 | 0.00 | 0.00 | 0.00 | 22 | 1003.1 |
| 20260504013025 | 23 | 278 | 4.8 | 0.0 | 0.00 | 0.00 | 0.00 | 22 | 1003.2 |
| 20260504011520 | 23 | 298 | 4.8 | 0.0 | 0.00 | 0.00 | 0.00 | 21 | 1003.3 |
| 20260504010019 | 24 | 274 | 6.4 | 0.0 | 0.00 | 0.00 | 0.00 | 21 | 1003.5 |
| 20260504004534 | 24 | 315 | 6.4 | 0.0 | 0.00 | 0.00 | 0.00 | 20 | 1003.6 |
| 20260504003018 | 24 | 250 | 6.4 | 0.0 | 0.00 | 0.00 | 0.00 | 22 | 1003.7 |
| 20260504001529 | 24 | 263 | 4.8 | 0.0 | 0.00 | 0.00 | 0.00 | 21 | 1004.0 |
| 20260504000018 | 24 | 267 | 6.4 | 0.0 | 0.00 | 0.00 | 0.00 | 21 | 1004.0 |
| 20260503234519 | 24 | 272 | 4.8 | 0.0 | 0.00 | 0.00 | 0.00 | 21 | 1003.9 |
| 20260503233015 | 24 | 285 | 6.4 | 0.0 | 0.00 | 0.00 | 0.00 | 23 | 1004.0 |
| 20260503231514 | 23 | 302 | 4.8 | 0.0 | 0.00 | 0.00 | 0.00 | 22 | 1004.2 |
| 20260503230012 | 23 | 286 | 6.4 | 0.0 | 0.00 | 0.00 | 0.00 | 20 | 1004.3 |
| 20260503224508 | 23 | 351 | 4.8 | 0.0 | 0.00 | 0.00 | 0.00 | 23 | 1004.6 |
| 20260503223008 | 23 | 224 | 4.8 | 0.0 | 0.00 | 0.00 | 0.00 | 23 | 1004.9 |
| 20260503221500 | 23 | 285 | 6.4 | 0.0 | 0.00 | 0.00 | 0.00 | 23 | 1005.1 |
| 20260503220058 | 22 | 255 | 6.4 | 0.0 | 0.00 | 0.00 | 0.00 | 26 | 1004.9 |
| 20260503214600 | 22 | 302 | 6.4 | 0.0 | 0.00 | 0.00 | 0.00 | 21 | 1005.4 |
| 20260503213056 | 22 | 300 | 6.4 | 0.0 | 0.00 | 0.00 | 0.00 | 21 | 1005.7 |
| 20260503211554 | 22 | 259 | 4.8 | 0.0 | 0.00 | 0.00 | 0.00 | 21 | 1006.2 |
| 20260503210052 | 22 | 252 | 4.8 | 0.0 | 0.00 | 0.00 | 0.00 | 21 | 1006.1 |